Hourly Data Report for May 23, 2012

All times are specified in Local Standard Time (LST). Add 1 hour to adjust for Daylight Saving Time where and when it is observed.

LONDON A
ONTARIO

43°01'59.000" N
81°09'04.000" W
278.00 m
6144473
71623
YXU

Download Data

Hourly Data (May 2012)
Hourly Data Report for May 23, 2012
Temp Definition
°C
Dew Point Temp Definition
°C
Rel Hum Definition
%
Wind Dir Definition
10's deg

Wind Spd Definition
km/h
Visibility Definition
km
Stn Press Definition
kPa
Hmdx Definition


Wind Chill Definition


Weather Definition


TIME
00:00 Legend Double Dagger 9.3 8.2 93   0 10.0 98.06     LegendNANA
01:00 Legend Double Dagger 8.3 7.4 94   0 10.0 98.04     Clear
02:00 Legend Double Dagger 8.8 8.1 95 29 5 10.0 98.01     LegendNANA
03:00 Legend Double Dagger 8.5 7.9 96 29 6 10.0 98.01     LegendNANA
04:00 Legend Double Dagger 8.1 7.7 97 29 5 10.0 98.02     Clear
05:00 Legend Double Dagger 8.3 7.9 97   0 10.0 98.02     LegendNANA
06:00 Legend Double Dagger 9.2 8.6 96   0 10.0 98.10     LegendNANA
07:00 Legend Double Dagger 11.9 10.7 92   0 10.0 98.13     Mostly Cloudy
08:00 Legend Double Dagger 15.0 12.4 84 26 5 10.0 98.21     LegendNANA
09:00 Legend Double Dagger 17.6 13.8 78   0 10.0 98.22     LegendNANA
10:00 Legend Double Dagger 19.5 14.0 70 2 8 10.0 98.18     Mainly Clear
11:00 Legend Double Dagger 21.9 13.9 60   0 10.0 98.16 25   LegendNANA
12:00 Legend Double Dagger 22.8 14.0 57 13 12 10.0 98.14 26   LegendNANA
13:00 Legend Double Dagger 24.7 14.1 51 18 17 10.0 98.13 28   Mainly Clear
14:00 Legend Double Dagger 24.5 13.9 51 18 12 10.0 98.10 28   LegendNANA
15:00 Legend Double Dagger 24.6 14.8 54 20 11 10.0 98.07 28   LegendNANA
16:00 Legend Double Dagger 24.3 13.7 51 18 13 10.0 98.05 27   Mostly Cloudy
17:00 Legend Double Dagger 23.6 13.3 52 16 19 10.0 98.01 27   LegendNANA
18:00 Legend Double Dagger 23.1 13.7 55 15 21 10.0 97.96 26   LegendNANA
19:00 Legend Double Dagger 21.8 13.3 58 14 18 10.0 98.02 25   Mainly Clear
20:00 Legend Double Dagger 19.4 13.0 66 18 10 10.0 98.05     LegendNANA
21:00 Legend Double Dagger 17.4 12.6 73 16 10 10.0 98.10     LegendNANA
22:00 Legend Double Dagger 16.4 12.2 76 9 6 10.0 98.10     Clear
23:00 Legend Double Dagger 13.3 12.0 92 6 4 10.0 98.12     LegendNANA

Notes on Data Quality.

Legend

  • E = Estimated
  • M = Missing
  • NA = Not Available
  • ‡ = Partner data that is not subject to review by the National Climate Archives
Date modified: